Home > Time Zones > World Clock > Weather > U.S.A. > Hilo > Past weeks

Flag for U.S.A. Weather past 2 weeks in Hilo, Hawaii, U.S.A.

Now
78 °F

Partly sunny.


Feels Like: 80 °F
Forecast: 64 / 77 °F
Wind: 7 mph from East

Location: Hilo International Airport

Current Time: Dec 26, 2014 at 3:42:20 PM

Latest Report: Dec 26, 2014 at 2:53 PM


Visibility: 10 mi

Pressure: 29.74 "Hg

Humidity: 62%

Dew point: 64 °F

Location of HiloLocation

Historic Weather in Hilo — Graph

°F

Hilo temperature yesterday

Maximum temperature yesterday: 76 °F (at 11:53 AM)
Minimum temperature yesterday: 67 °F (at 1:53 AM)
Average temperature yesterday: 72 °F

Past Weeks' High & Low Weather Summary

 TemperatureHumidityPressure
High82 °F (Dec 21, 11:36 AM)100% (Dec 12, 4:26 AM)30.19 "Hg (Dec 12, 4:26 AM)
Low64 °F (Dec 26, 5:53 AM)52% (Dec 22, 9:53 AM)29.72 "Hg (Dec 25, 2:53 PM)
Average72 °F81%30.02 "Hg
* Reported Dec 11 1:53 PM — Dec 26 1:53 PM, Hilo, Weather by CustomWeather, © 2014

Note: Actual official high and low records may vary slightly from our data, if they occured in-between our weather recording intervals... More about our weather records

Advertising

Hilo weather history for previous 24 hours

 ConditionsComfort  
Time TempWeatherWind HumidityBarometerVisibility
1:53 PM
Dec 26
80 °FPassing clouds.10 mph58%29.75 "Hg10 mi
12:53 PM80 °FPassing clouds.8 mph58%29.77 "Hg10 mi
11:53 AM80 °FPassing clouds.7 mph54%29.82 "Hg10 mi
10:53 AM80 °FPassing clouds.7 mph56%29.84 "Hg10 mi
9:53 AM77 °FPassing clouds.No wind62%29.85 "Hg10 mi
8:53 AM73 °FPassing clouds.5 mph69%29.85 "Hg10 mi
7:53 AM66 °FPassing clouds.7 mph78%29.83 "Hg10 mi
6:53 AM64 °FPassing clouds.8 mph81%29.80 "Hg10 mi
5:53 AM64 °FPassing clouds.6 mph81%29.79 "Hg10 mi
4:53 AM65 °FPassing clouds.7 mph81%29.78 "Hg10 mi
3:53 AM66 °FClear.7 mph84%29.77 "Hg10 mi
2:53 AM67 °FOvercast.7 mph87%29.77 "Hg10 mi
1:53 AM68 °FOvercast.5 mph90%29.78 "Hg10 mi
12:53 AM70 °FMostly cloudy.No wind90%29.79 "Hg10 mi
12:18 AM70 °FLight rain. Mostly cloudy.5 mph94%29.80 "Hg10 mi
11:53 PM
Dec 25
71 °FLight rain. Mostly cloudy.7 mph90%29.80 "Hg10 mi
11:12 PM72 °FLight rain. Mostly cloudy.7 mph88%29.81 "Hg10 mi
10:53 PM72 °FLight rain. Mostly cloudy.5 mph87%29.80 "Hg10 mi
10:12 PM72 °FOvercast.3 mph83%29.80 "Hg10 mi
9:53 PM71 °FOvercast.3 mph87%29.80 "Hg10 mi
8:53 PM71 °FMostly cloudy.5 mph87%29.79 "Hg10 mi
7:53 PM71 °FMostly cloudy.5 mph90%29.78 "Hg10 mi
6:53 PM72 °FLight rain. Mostly cloudy.7 mph91%29.77 "Hg10 mi
5:53 PM74 °FOvercast.No wind82%29.76 "Hg10 mi
4:53 PM75 °FMostly cloudy.No wind76%29.74 "Hg10 mi
4:27 PM75 °FMore clouds than sun.5 mph78%29.74 "Hg10 mi
4:18 PM75 °FMore clouds than sun.5 mph78%29.74 "Hg10 mi
3:53 PM76 °FMostly cloudy.5 mph80%29.73 "Hg10 mi
3:21 PM75 °FMostly cloudy.6 mph78%29.73 "Hg10 mi
Weather by CustomWeather, © 2014

See weather overviewHow to use our weather pages